TimeMST,TemperatureF,Dew PointF,Humidity,Sea Level PressureIn,VisibilityMPH,Wind Direction,Wind SpeedMPH,Gust SpeedMPH,PrecipitationIn,Events,Conditions,WindDirDegrees,DateUTC
12:15 AM,44.6,21.2,39,30.15,10.0,North,3.5,-,N/A,,Clear,10,2013-02-07 07:15:00
12:35 AM,42.8,21.2,42,30.15,10.0,West,3.5,-,N/A,,Clear,280,2013-02-07 07:35:00
12:55 AM,42.8,21.2,42,30.15,10.0,WNW,3.5,-,N/A,,Clear,290,2013-02-07 07:55:00
1:15 AM,42.8,21.2,42,30.15,10.0,NNW,4.6,-,N/A,,Clear,330,2013-02-07 08:15:00
1:35 AM,41.0,21.2,45,30.16,10.0,SSW,3.5,-,N/A,,Clear,200,2013-02-07 08:35:00
1:55 AM,41.0,21.2,45,30.16,10.0,Calm,Calm,-,N/A,,Clear,0,2013-02-07 08:55:00
2:15 AM,39.2,21.2,49,30.16,10.0,Calm,Calm,-,N/A,,Clear,0,2013-02-07 09:15:00
2:35 AM,42.8,21.2,42,30.16,10.0,Calm,Calm,-,N/A,,Clear,0,2013-02-07 09:35:00
2:55 AM,37.4,19.4,48,30.16,10.0,Calm,Calm,-,N/A,,Clear,0,2013-02-07 09:55:00
3:15 AM,37.4,21.2,52,30.16,10.0,SE,3.5,-,N/A,,Clear,140,2013-02-07 10:15:00
3:35 AM,37.4,21.2,52,30.17,10.0,SE,6.9,-,N/A,,Clear,140,2013-02-07 10:35:00
3:55 AM,37.4,21.2,52,30.17,10.0,ESE,5.8,-,N/A,,Clear,110,2013-02-07 10:55:00
4:15 AM,37.4,21.2,52,30.17,10.0,East,8.1,-,N/A,,Clear,100,2013-02-07 11:15:00
4:35 AM,37.4,21.2,52,30.17,10.0,East,6.9,-,N/A,,Clear,100,2013-02-07 11:35:00
5:15 AM,37.4,21.2,52,30.17,10.0,SE,4.6,-,N/A,,Clear,140,2013-02-07 12:15:00
5:35 AM,35.6,21.2,56,30.17,10.0,ESE,3.5,-,N/A,,Clear,120,2013-02-07 12:35:00
5:55 AM,35.6,21.2,56,30.17,10.0,SE,6.9,-,N/A,,Clear,140,2013-02-07 12:55:00
6:15 AM,35.6,21.2,56,30.18,10.0,South,4.6,-,N/A,,Clear,180,2013-02-07 13:15:00
6:35 AM,33.8,21.2,60,30.19,10.0,South,3.5,-,N/A,,Clear,190,2013-02-07 13:35:00
6:55 AM,33.8,21.2,60,30.19,10.0,Calm,Calm,-,N/A,,Clear,0,2013-02-07 13:55:00
7:15 AM,32.0,21.2,64,30.19,10.0,Calm,Calm,-,N/A,,Clear,0,2013-02-07 14:15:00
7:35 AM,32.0,21.2,64,30.20,10.0,Calm,Calm,-,N/A,,Clear,0,2013-02-07 14:35:00
7:55 AM,33.8,21.2,60,30.20,10.0,South,3.5,-,N/A,,Clear,180,2013-02-07 14:55:00
8:15 AM,35.6,21.2,56,30.21,10.0,East,3.5,-,N/A,,Clear,100,2013-02-07 15:15:00
8:35 AM,35.6,21.2,56,30.22,10.0,Calm,Calm,-,N/A,,Clear,0,2013-02-07 15:35:00
8:55 AM,37.4,21.2,52,30.22,10.0,Calm,Calm,-,N/A,,Clear,0,2013-02-07 15:55:00
9:15 AM,39.2,23.0,52,30.22,10.0,Calm,Calm,-,N/A,,Clear,0,2013-02-07 16:15:00
9:35 AM,37.4,23.0,56,30.22,10.0,NW,4.6,-,N/A,,Clear,310,2013-02-07 16:35:00
9:55 AM,39.2,23.0,52,30.21,10.0,Calm,Calm,-,N/A,,Clear,0,2013-02-07 16:55:00
10:15 AM,41.0,24.8,53,30.21,10.0,Calm,Calm,-,N/A,,Clear,0,2013-02-07 17:15:00
10:35 AM,42.8,24.8,49,30.21,10.0,Calm,Calm,-,N/A,,Clear,0,2013-02-07 17:35:00
10:55 AM,42.8,23.0,46,30.20,10.0,Calm,Calm,-,N/A,,Clear,0,2013-02-07 17:55:00
11:15 AM,44.6,23.0,43,30.19,10.0,Calm,Calm,-,N/A,,Clear,0,2013-02-07 18:15:00
11:35 AM,46.4,24.8,43,30.18,10.0,Calm,Calm,-,N/A,,Clear,0,2013-02-07 18:35:00
11:55 AM,46.4,24.8,43,30.17,10.0,NW,3.5,-,N/A,,Clear,310,2013-02-07 18:55:00
12:15 PM,48.2,24.8,40,30.16,10.0,Calm,Calm,-,N/A,,Clear,0,2013-02-07 19:15:00
12:35 PM,50.0,24.8,37,30.14,10.0,NNW,5.8,-,N/A,,Clear,340,2013-02-07 19:35:00
12:55 PM,51.8,24.8,35,30.12,10.0,NW,5.8,-,N/A,,Clear,310,2013-02-07 19:55:00
1:15 PM,53.6,24.8,33,30.10,10.0,NNW,4.6,-,N/A,,Clear,330,2013-02-07 20:15:00
1:35 PM,55.4,24.8,31,30.08,10.0,WNW,5.8,-,N/A,,Clear,300,2013-02-07 20:35:00
1:55 PM,55.4,24.8,31,30.06,10.0,WNW,5.8,-,N/A,,Clear,290,2013-02-07 20:55:00
2:15 PM,57.2,24.8,29,30.05,10.0,West,9.2,-,N/A,,Clear,280,2013-02-07 21:15:00
2:35 PM,57.2,24.8,29,30.03,10.0,WSW,8.1,-,N/A,,Clear,250,2013-02-07 21:35:00
2:55 PM,57.2,24.8,29,30.02,10.0,WSW,8.1,-,N/A,,Clear,250,2013-02-07 21:55:00
3:15 PM,59.0,24.8,27,30.01,10.0,West,6.9,-,N/A,,Clear,260,2013-02-07 22:15:00
3:35 PM,59.0,24.8,27,30.01,10.0,WSW,8.1,-,N/A,,Clear,250,2013-02-07 22:35:00
3:55 PM,60.8,24.8,25,30.00,10.0,WSW,4.6,-,N/A,,Clear,240,2013-02-07 22:55:00
4:35 PM,60.8,23.0,23,29.98,10.0,Calm,Calm,-,N/A,,Clear,0,2013-02-07 23:35:00
4:55 PM,60.8,21.2,22,29.98,10.0,West,3.5,-,N/A,,Clear,280,2013-02-07 23:55:00
5:15 PM,60.8,21.2,22,29.97,10.0,Calm,Calm,-,N/A,,Clear,0,2013-02-08 00:15:00
5:35 PM,60.8,23.0,23,29.97,10.0,Calm,Calm,-,N/A,,Clear,0,2013-02-08 00:35:00
5:55 PM,57.2,23.0,27,29.97,10.0,SSW,5.8,-,N/A,,Clear,200,2013-02-08 00:55:00
6:15 PM,57.2,23.0,27,29.96,10.0,South,4.6,-,N/A,,Clear,170,2013-02-08 01:15:00
6:35 PM,53.6,23.0,30,29.96,10.0,Calm,Calm,-,N/A,,Clear,0,2013-02-08 01:35:00
6:55 PM,53.6,21.2,28,29.96,10.0,ESE,5.8,-,N/A,,Clear,120,2013-02-08 01:55:00
7:15 PM,51.8,23.0,33,29.95,10.0,SSE,4.6,-,N/A,,Clear,160,2013-02-08 02:15:00
7:35 PM,48.2,23.0,37,29.94,10.0,SE,6.9,-,N/A,,Clear,140,2013-02-08 02:35:00
7:55 PM,48.2,23.0,37,29.94,10.0,SE,8.1,-,N/A,,Clear,130,2013-02-08 02:55:00
8:15 PM,46.4,24.8,43,29.94,10.0,SE,9.2,-,N/A,,Clear,140,2013-02-08 03:15:00
8:35 PM,48.2,24.8,40,29.93,10.0,Calm,Calm,-,N/A,,Clear,0,2013-02-08 03:35:00
8:55 PM,50.0,23.0,35,29.93,10.0,SSE,5.8,-,N/A,,Clear,160,2013-02-08 03:55:00
9:15 PM,46.4,23.0,40,29.93,10.0,SE,6.9,-,N/A,,Clear,140,2013-02-08 04:15:00
9:35 PM,46.4,23.0,40,29.92,10.0,SSE,5.8,-,N/A,,Clear,150,2013-02-08 04:35:00
9:55 PM,48.2,21.2,34,29.92,10.0,ESE,5.8,-,N/A,,Clear,110,2013-02-08 04:55:00
10:15 PM,48.2,21.2,34,29.92,10.0,South,6.9,-,N/A,,Clear,170,2013-02-08 05:15:00
10:35 PM,46.4,21.2,37,29.92,10.0,East,3.5,-,N/A,,Clear,100,2013-02-08 05:35:00
10:55 PM,44.6,21.2,39,29.91,10.0,East,3.5,-,N/A,,Clear,100,2013-02-08 05:55:00
11:15 PM,46.4,21.2,37,29.91,10.0,SSE,3.5,-,N/A,,Clear,150,2013-02-08 06:15:00
11:55 PM,44.6,23.0,43,29.90,10.0,ESE,10.4,-,N/A,,Clear,120,2013-02-08 06:55:00